Zurück zum Katalog

ONEWEB-0015

AktivKommunikationPO
NORAD 61594·PAYLOAD·🇬🇧 United Kingdom

Gestartet Oct 20, 2024 von Vandenberg Space Force Base

Loading…

Nächste Überflüge (nächste 24 Stunden)

TLE

AktuellSource: CelesTrak SupGP

Epoche: Sep 14, 2026, 23:31 UTC

1 61594C 24188A   26257.98002732 -.00001856  00000+0 -52432-2 0  2577
2 61594  87.8973   3.2378 0002179 112.3198 350.9017 13.11423361    17

Verfolge ONEWEB-0015 in Echtzeit mit AllMySat

Download on the App Store